"America/Chicago Time","Lifetime Energy (kWh)","Power (W)","AC Volts RMS (V) ","AC Amps RMS (mA)","Grid Frequency (Hz)","Inverter Temperature (C)"
"07/07/12 10:46:30","429633.5031","160.0","216.85","732","60.03","38"
"07/07/12 10:51:29","429633.5156","162.0","216.75","749","60.03","38"
"07/07/12 10:56:30","429633.5284","164.7","217.13","757","60.03","38"
"07/07/12 11:01:31","429633.5413","166.2","216.59","765","60.03","39"
"07/07/12 11:06:29","429633.5542","167.4","216.28","768","60.0","39"
"07/07/12 11:11:30","429633.5673","168.8","216.5","772","60.0","39"
"07/07/12 11:16:30","429633.5804","169.1","216.8","773","60.03","40"
"07/07/12 11:21:30","429633.5937","169.7","216.87","777","60.0","40"
"07/07/12 11:26:29","429633.6069","172.5","218.05","784","60.0","40"
"07/07/12 11:31:30","429633.6205","174.2","217.2","794","60.03","40"
"07/07/12 11:36:30","429633.6341","174.1","216.29","798","60.0","40"
"07/07/12 11:41:29","429633.6477","175.4","216.71","802","60.0","40"
"07/07/12 11:46:29","429633.6613","177.3","216.73","807","60.0","40"
"07/07/12 11:51:29","429633.6752","177.8","216.95","818","60.03","40"
"07/07/12 11:56:30","429633.6891","178.1","216.25","822","60.07","40"
"07/07/12 12:01:31","429633.7031","178.2","216.12","815","60.03","40"
"07/07/12 12:06:29","429633.7169","179.6","217.02","820","60.03","41"
"07/07/12 12:11:31","429633.731","179.5","216.32","822","60.0","41"
"07/07/12 12:16:29","429633.745","181.7","217.02","827","60.0","40"
"07/07/12 12:21:29","429633.7591","180.0","217.24","820","60.03","41"
"07/07/12 12:26:30","429633.7732","179.9","218.03","814","60.0","41"
"07/07/12 12:31:30","429633.7874","182.5","217.54","834","60.0","41"
"07/07/12 12:36:29","429633.8015","182.1","217.02","831","60.0","41"
"07/07/12 12:41:30","429633.8158","181.9","217.71","829","60.0","41"
"07/07/12 12:46:30","429633.8299","182.1","217.63","827","60.03","41"
"07/07/12 12:51:31","429633.8441","180.9","216.26","829","60.0","41"
"07/07/12 12:56:29","429633.8581","180.2","216.96","823","60.03","41"
"07/07/12 13:01:31","429633.8721","178.8","216.05","818","60.03","42"
"07/07/12 13:06:30","429633.886","179.1","217.63","821","60.0","42"
"07/07/12 13:11:31","429633.9","179.5","217.04","816","60.03","42"
"07/07/12 13:16:29","429633.9139","178.1","216.67","813","60.03","42"
"07/07/12 13:21:29","429633.9278","178.5","216.72","818","60.03","42"
"07/07/12 13:26:31","429633.9417","176.6","216.51","810","60.03","42"
"07/07/12 13:31:31","429633.9555","176.9","217.34","806","60.0","42"
"07/07/12 13:36:29","429633.9691","175.0","215.89","804","60.03","43"
"07/07/12 13:41:30","429633.9829","176.6","217.01","805","60.03","42"
"07/07/12 13:46:31","429633.9965","173.9","216.78","799","60.0","43"
"07/07/12 13:51:29","429634.01","172.2","215.75","794","60.03","43"
"07/07/12 13:56:30","429634.0233","171.8","216.36","790","60.03","42"
"07/07/12 14:01:30","429634.0368","170.6","216.81","783","60.03","42"
"07/07/12 14:06:31","429634.05","169.3","216.69","782","60.03","42"
"07/07/12 14:11:29","429634.0631","168.2","216.7","774","60.03","42"
"07/07/12 14:16:31","429634.0762","166.2","216.82","762","60.07","43"
"07/07/12 14:21:29","429634.089","165.2","216.07","761","60.03","42"
"07/07/12 14:26:30","429634.1019","163.9","216.57","753","60.0","42"
"07/07/12 14:31:31","429634.1146","160.8","216.7","742","60.03","43"
"07/07/12 14:36:29","429634.127","160.1","217.13","732","60.03","42"
"07/07/12 14:41:29","429634.1393","157.6","217.27","726","60.03","42"
"07/07/12 14:46:30","429634.1515","154.1","216.09","713","60.0","43"
"07/07/12 14:51:30","429634.1635","152.5","215.88","706","60.0","42"
"07/07/12 14:56:31","429634.1753","150.4","217.35","692","60.03","43"
"07/07/12 15:01:30","429634.1869","149.0","216.89","682","60.03","43"
"07/07/12 15:06:29","429634.1983","146.4","216.55","677","60.0","43"
"07/07/12 15:11:30","429634.2096","144.2","216.34","669","60.03","43"
"07/07/12 15:16:30","429634.2207","140.4","216.22","657","60.0","43"
"07/07/12 15:21:30","429634.2315","138.7","215.97","645","60.03","43"
"07/07/12 15:26:31","429634.2422","136.6","215.71","641","60.03","42"
"07/07/12 15:31:30","429634.2528","134.2","215.06","627","60.03","43"
"07/07/12 15:36:30","429634.2631","131.2","213.61","622","60.03","42"
"07/07/12 15:41:31","429634.2732","128.1","215.06","604","60.03","42"
"07/07/12 15:46:30","429634.283","125.2","214.23","594","60.0","42"
"07/07/12 15:51:30","429634.2928","123.6","215.57","583","60.03","41"
"07/07/12 15:56:30","429634.3022","120.3","215.59","564","60.0","41"
"07/07/12 16:01:31","429634.3115","116.2","215.81","553","60.0","41"
"07/07/12 16:06:29","429634.3203","113.4","215.1","538","60.03","41"
"07/07/12 16:11:30","429634.3291","110.3","215.53","522","60.03","41"
"07/07/12 16:16:31","429634.3375","107.7","214.65","518","60.03","41"
"07/07/12 16:26:31","429634.3538","101.5","214.81","487","60.03","40"
"07/07/12 16:31:29","429634.3616","98.4","214.45","477","60.03","40"
"07/07/12 16:36:30","429634.3691","94.5","214.2","459","60.03","40"
"07/07/12 16:41:30","429634.3763","91.3","214.37","445","60.03","40"
"07/07/12 16:46:30","429634.3833","88.2","213.99","435","60.0","40"
"07/07/12 16:51:29","429634.39","84.4","213.71","419","60.07","40"
"07/07/12 16:56:30","429634.3965","81.6","214.19","404","60.03","40"
"07/07/12 17:01:30","429634.4028","78.0","214.85","387","60.0","39"
"07/07/12 17:06:30","429634.4086","73.7","214.5","370","60.03","39"
"07/07/12 17:11:31","429634.4142","70.2","214.0","354","60.03","39"
"07/07/12 17:16:29","429634.4195","66.7","213.69","336","60.0","38"
"07/07/12 17:21:30","429634.4245","62.9","213.84","323","60.0","38"
"07/07/12 17:26:30","429634.4289","55.0","214.61","123","60.03","38"
"07/07/12 17:31:31","429634.4329","41.9","213.21","369","60.0","38"
"07/07/12 17:36:29","429634.4369","64.0","213.47","345","60.03","38"
"07/07/12 17:41:29","429634.4408","54.7","213.72","247","60.03","38"
"07/07/12 17:46:29","429634.4443","38.8","213.38","141","60.03","37"
"07/07/12 17:51:30","429634.4476","34.1","213.42","170","60.07","37"
"07/07/12 17:56:30","429634.4505","41.6","213.37","147","60.07","37"
"07/07/12 18:01:29","429634.4532","28.6","213.64","131","60.0","36"
"07/07/12 18:06:29","429634.4556","25.7","214.0","119","60.03","36"
"07/07/12 18:11:30","429634.4578","23.9","214.04","43","60.03","35"
"07/07/12 18:16:29","429634.4596","31.1","213.85","131","60.0","35"
"07/07/12 18:21:29","429634.4613","13.1","213.64","16","60.03","34"
"07/07/12 18:26:31","429634.4627","13.5","213.68","155","60.03","34"
"07/07/12 18:31:30","429634.4639","21.2","213.63","232","60.0","34"
"07/07/12 18:36:29","429634.4649","15.0","212.89","7","60.03","33"
"07/07/12 18:41:30","429634.4657","15.0","213.19","195","60.07","33"
"07/07/12 18:46:30","429634.4664","13.3","213.51","22","60.03","32"
"07/07/12 18:51:29","429634.467","13.4","213.1","3","60.03","32"
"07/07/12 18:56:31","429634.4674","0.0","212.56","0","60.03","32"
"07/07/12 19:01:30","429634.4678","0.0","213.33","0","60.0","32"
"07/07/12 19:06:31","429634.4681","0.0","213.23","0","60.03","31"
"07/07/12 19:11:31","429634.4684","0.0","213.42","0","60.03","31"
"07/07/12 19:16:29","429634.4686","14.0","213.48","91","60.03","31"
"07/07/12 19:56:32","429634.4699","0.0","213.03","0","60.03","26"
"07/08/12 06:31:30","429634.4701","0.0","213.05","0","60.0","18"
"07/08/12 06:41:30","429634.4707","14.3","213.14","23","60.03","19"
"07/08/12 06:46:30","429634.4711","0.0","213.04","219","60.03","19"
"07/08/12 06:51:32","429634.4716","0.0","211.97","204","60.0","19"
"07/08/12 06:56:30","429634.4721","0.0","212.58","0","60.03","19"
"07/08/12 07:01:30","429634.4726","7.1","212.82","115","60.03","20"
"07/08/12 07:06:29","429634.4733","6.6","212.83","218","60.03","20"
"07/08/12 07:11:29","429634.4748","27.8","212.83","25","60.0","20"
"07/08/12 07:16:30","429634.4771","27.4","213.53","134","60.03","20"
"07/08/12 07:21:30","429634.4797","40.7","213.82","217","60.03","22"
"07/08/12 07:26:31","429634.4826","40.0","213.37","132","60.0","22"
"07/08/12 07:31:29","429634.4858","45.4","213.59","137","60.03","23"
"07/08/12 07:36:30","429634.4893","42.3","215.0","114","60.03","23"
"07/08/12 07:41:30","429634.4932","46.4","215.08","335","60.0","24"
"07/08/12 07:46:30","429634.4971","49.9","214.45","359","60.03","25"
"07/08/12 07:51:31","429634.501","50.4","215.41","107","60.0","25"
"07/08/12 07:56:29","429634.5048","47.7","215.47","355","60.03","26"
"07/08/12 08:01:30","429634.5095","67.4","215.06","339","60.03","26"
"07/08/12 08:06:31","429634.5149","71.6","215.24","359","60.0","27"
"07/08/12 08:11:30","429634.5206","75.5","215.64","373","60.0","27"
"07/08/12 08:16:30","429634.5265","79.1","215.1","390","60.03","28"
"07/08/12 08:21:53","429634.5333","83.5","214.82","410","60.0","29"
"07/08/12 08:26:30","429634.5394","87.0","214.78","424","60.03","29"
"07/08/12 08:31:30","429634.5463","90.9","215.26","438","60.0","29"
"07/08/12 08:36:29","429634.5535","94.2","215.42","457","60.03","30"
"07/08/12 08:41:30","429634.5611","97.8","215.2","468","60.0","30"
"07/08/12 08:46:31","429634.5688","101.3","215.77","487","60.03","31"
"07/08/12 08:51:30","429634.5768","104.3","215.51","501","60.0","31"
"07/08/12 08:56:30","429634.5851","107.7","215.78","512","60.03","32"
"07/08/12 09:01:30","429634.5936","110.3","214.68","527","60.03","32"
"07/08/12 09:06:31","429634.6023","113.3","214.89","540","60.03","33"
"07/08/12 09:11:30","429634.6112","116.1","215.44","550","60.0","34"
"07/08/12 09:16:30","429634.6203","118.6","215.76","565","60.07","34"
"07/08/12 09:21:30","429634.6296","121.6","215.81","575","60.0","35"
"07/08/12 09:26:30","429634.6392","123.7","215.94","580","60.07","36"
"07/08/12 09:31:31","429634.6489","125.6","215.8","589","60.03","37"
"07/08/12 09:36:30","429634.6587","127.9","215.52","605","60.0","37"
"07/08/12 09:41:31","429634.6688","130.5","215.23","616","60.03","38"
"07/08/12 09:46:30","429634.6791","132.8","216.01","624","60.03","38"
"07/08/12 09:51:31","429634.6895","135.1","214.76","635","60.03","39"
"07/08/12 09:56:30","429634.7001","136.5","215.56","640","60.0","40"
"07/08/12 10:01:30","429634.7109","140.8","216.37","658","60.03","41"
"07/08/12 10:06:30","429634.7219","143.6","216.43","669","60.0","42"
"07/08/12 10:11:30","429634.7332","145.5","215.99","675","60.03","42"
"07/08/12 10:16:30","429634.7447","149.9","216.64","693","60.0","42"
"07/08/12 10:21:31","429634.7564","150.4","216.27","696","60.0","43"
"07/08/12 10:26:31","429634.7682","151.5","217.42","697","60.0","43"
"07/08/12 10:31:30","429634.78","152.9","216.44","707","60.0","43"
"07/08/12 10:36:30","429634.7921","157.2","216.21","727","60.03","43"
"07/08/12 10:41:31","429634.8045","160.5","217.36","736","60.0","43"
"07/08/12 10:46:31","429634.8171","161.7","216.36","747","60.0","43"
"07/08/12 10:51:31","429634.8297","163.3","215.44","755","60.0","43"
"07/08/12 10:56:31","429634.8425","164.5","216.9","756","60.03","43"
"07/08/12 11:01:30","429634.8553","166.1","217.45","761","60.03","42"
"07/08/12 11:06:30","429634.8683","166.9","216.84","766","60.03","43"
"07/08/12 11:11:29","429634.8814","168.4","216.31","773","60.0","43"
"07/08/12 11:16:31","429634.8945","169.1","216.36","774","60.0","43"
"07/08/12 11:21:29","429634.9077","170.7","217.46","779","60.0","43"
"07/08/12 11:26:30","429634.921","171.0","217.43","781","60.03","43"
"07/08/12 11:31:30","429634.9344","171.5","217.9","784","60.0","43"
"07/08/12 11:36:30","429634.9477","172.9","217.09","791","60.0","43"
"07/08/12 11:41:31","429634.9613","173.5","217.43","794","60.0","43"
"07/08/12 11:46:30","429634.9747","175.1","217.58","798","60.0","43"
"07/08/12 11:51:31","429634.9885","174.6","217.1","800","60.0","43"
"07/08/12 11:56:29","429635.002","174.6","216.51","800","60.07","44"
"07/08/12 12:01:30","429635.0157","177.2","216.74","809","60.03","43"
"07/08/12 12:06:31","429635.0294","177.3","216.54","810","60.03","43"
"07/08/12 12:11:30","429635.0433","177.7","216.6","810","60.03","43"
"07/08/12 12:16:31","429635.0572","178.2","217.22","812","60.03","43"
"07/08/12 12:21:29","429635.0709","178.9","217.33","813","60.0","43"
"07/08/12 12:26:30","429635.0848","177.4","216.34","814","60.0","43"
"07/08/12 12:31:31","429635.0988","177.5","217.29","811","60.03","43"
"07/08/12 12:36:30","429635.1125","177.5","216.09","816","60.0","43"
"07/08/12 12:41:31","429635.1265","179.3","216.49","818","60.03","43"
"07/08/12 12:46:29","429635.1404","180.4","216.5","826","60.0","43"
"07/08/12 12:51:30","429635.1545","179.7","216.73","817","60.03","43"
"07/08/12 12:56:30","429635.1686","180.4","216.38","827","60.0","42"
"07/08/12 13:01:31","429635.1827","179.4","217.01","819","60.03","42"
"07/08/12 13:06:31","429635.1967","178.3","217.06","811","60.03","42"
"07/08/12 13:11:31","429635.2106","177.9","216.97","815","60.0","41"
"07/08/12 13:16:29","429635.2243","177.9","217.02","814","60.03","42"
"07/08/12 13:21:31","429635.2382","175.9","216.3","808","60.0","42"
"07/08/12 13:26:31","429635.2519","176.5","216.69","803","60.03","42"
"07/08/12 13:31:30","429635.2656","176.2","216.99","802","60.03","42"
"07/08/12 13:36:31","429635.2793","173.1","215.81","797","60.03","42"
"07/08/12 13:41:30","429635.2927","171.5","216.83","787","60.0","42"
"07/08/12 13:46:31","429635.306","170.2","216.42","781","60.03","42"
"07/08/12 13:51:31","429635.3193","169.3","216.71","781","60.0","43"
"07/08/12 13:56:30","429635.3324","168.6","216.56","774","60.03","43"
"07/08/12 14:01:31","429635.3456","168.7","216.74","777","60.03","43"
"07/08/12 14:06:31","429635.3587","167.2","216.5","772","60.03","43"
"07/08/12 14:11:30","429635.3717","166.0","216.61","761","60.03","43"
"07/08/12 14:16:31","429635.3846","163.7","216.61","755","60.03","43"
"07/08/12 14:21:30","429635.3973","162.7","216.57","745","60.0","43"
"07/08/12 14:26:30","429635.4099","161.6","216.13","746","60.03","43"
"07/08/12 14:31:31","429635.4225","159.6","216.74","729","60.03","43"
"07/08/12 14:36:30","429635.4347","159.1","217.77","726","60.03","43"
"07/08/12 14:41:30","429635.4471","156.7","217.05","719","60.03","43"
"07/08/12 14:46:31","429635.4592","154.9","216.97","715","60.0","43"
"07/08/12 14:51:31","429635.4713","153.6","215.79","709","60.0","43"
"07/08/12 14:56:31","429635.4831","151.4","216.36","702","60.03","43"
"07/08/12 15:01:30","429635.4947","148.8","215.73","689","60.0","43"
"07/08/12 15:06:30","429635.5063","147.1","216.33","682","60.0","43"
"07/08/12 15:11:31","429635.5177","144.5","216.48","671","60.03","42"
"07/08/12 15:16:31","429635.5288","142.1","216.44","662","60.03","42"
"07/08/12 15:21:31","429635.5398","139.4","215.92","648","60.03","42"
"07/08/12 15:26:30","429635.5505","137.2","216.48","641","60.03","42"
"07/08/12 15:31:30","429635.5611","134.7","216.98","631","60.03","42"
"07/08/12 15:36:30","429635.5714","132.3","216.69","619","60.0","41"
"07/08/12 15:41:29","429635.5816","129.3","215.7","608","60.03","41"
"07/08/12 15:46:30","429635.5916","126.5","216.39","597","60.03","41"
"07/08/12 15:51:29","429635.6014","124.3","217.04","581","60.03","40"
"07/08/12 15:56:31","429635.6109","121.3","217.12","572","60.03","40"
"07/08/12 16:01:31","429635.6203","118.7","216.98","559","60.0","39"
"07/08/12 16:06:31","429635.6293","114.8","216.62","546","60.0","39"
"07/08/12 16:11:31","429635.6382","112.0","216.76","530","60.0","38"
"07/08/12 16:16:31","429635.6468","109.3","216.23","523","60.0","38"
"07/08/12 16:21:30","429635.6552","106.3","216.67","506","60.03","38"
"07/08/12 16:26:31","429635.6633","103.1","214.7","493","60.0","38"
"07/08/12 16:31:30","429635.6712","99.2","215.11","479","60.07","38"
"07/08/12 16:36:30","429635.6787","96.2","215.24","462","60.03","37"
"07/08/12 16:41:30","429635.686","92.7","214.72","449","60.03","37"
"07/08/12 16:46:30","429635.6931","88.9","214.98","433","60.03","37"
"07/08/12 16:51:31","429635.6999","85.3","214.57","421","60.03","36"
"07/08/12 16:56:31","429635.7064","81.9","214.29","404","60.03","36"
"07/08/12 17:01:31","429635.7127","78.3","214.41","391","60.0","36"
"07/08/12 17:06:30","429635.7186","75.2","214.46","376","60.03","35"
"07/08/12 17:11:31","429635.7243","71.5","215.19","357","60.03","34"
"07/08/12 17:16:30","429635.7296","67.8","215.29","342","60.03","34"
"07/08/12 17:21:31","429635.7348","64.0","214.48","327","60.03","33"
"07/08/12 17:26:30","429635.7395","42.0","214.61","389","60.03","33"
"07/08/12 17:31:30","429635.7434","43.8","215.06","366","60.03","33"
"07/08/12 17:36:29","429635.7475","48.2","214.58","122","60.03","32"
"07/08/12 17:41:30","429635.7516","58.8","214.87","119","60.03","32"
"07/08/12 17:46:31","429635.7557","54.1","214.49","360","60.03","32"
"07/08/12 17:51:30","429635.7591","43.2","213.87","94","60.03","32"
"07/08/12 17:56:31","429635.7621","32.6","213.5","114","60.0","32"
"07/08/12 18:01:31","429635.7649","28.8","214.55","80","60.0","32"
"07/08/12 18:06:30","429635.7673","32.1","214.32","272","60.0","31"
"07/08/12 18:11:30","429635.7696","31.4","213.39","236","60.03","31"
"07/08/12 18:16:31","429635.7715","34.0","213.33","82","60.03","31"
"07/08/12 18:21:30","429635.7732","14.1","213.6","174","60.03","31"
"07/08/12 18:31:31","429635.7767","16.4","213.95","145","60.07","30"
"07/08/12 18:36:31","429635.7784","23.2","214.11","32","60.03","30"
"07/08/12 18:41:31","429635.7798","12.3","213.49","14","60.03","30"
"07/08/12 18:46:31","429635.7806","10.2","213.3","0","60.0","29"
"07/08/12 18:51:30","429635.7813","0.0","213.17","0","60.03","28"
"07/08/12 18:56:30","429635.7817","13.3","213.3","22","60.03","28"
"07/08/12 19:01:31","429635.7822","0.0","213.8","0","60.0","27"
"07/08/12 19:06:30","429635.7825","11.3","213.54","1","60.03","27"
"07/08/12 19:11:30","429635.7829","0.0","213.51","0","60.0","27"
"07/08/12 19:16:30","429635.7832","14.3","213.38","7","60.03","26"
"07/08/12 19:21:30","429635.7836","0.0","213.05","0","60.0","26"
"07/08/12 19:26:31","429635.7839","0.0","212.26","0","60.03","26"
"07/08/12 19:31:30","429635.7842","0.0","212.43","0","60.0","26"
"07/08/12 19:41:31","429635.7846","0.0","212.89","0","60.03","25"
"07/09/12 05:51:30","429635.7849","3.4","214.4","185","60.03","17"
"07/09/12 05:56:31","429635.7853","5.7","215.54","224","60.07","17"
"07/09/12 06:01:31","429635.7857","11.4","214.84","7","60.03","17"
"07/09/12 06:06:31","429635.7863","0.0","214.69","0","60.03","18"
"07/09/12 06:11:30","429635.7868","8.8","214.36","238","60.03","18"
"07/09/12 06:16:30","429635.7872","0.0","214.88","0","60.0","18"
"07/09/12 06:21:31","429635.7876","6.6","214.11","120","60.03","18"
"07/09/12 06:26:31","429635.7881","0.0","215.17","0","60.0","18"
"07/09/12 06:31:31","429635.7887","14.1","212.19","4","60.03","19"
"07/09/12 06:36:32","429635.7894","12.4","212.95","0","60.0","19"
"07/09/12 06:41:31","429635.7903","14.8","217.81","3","60.0","19"
"07/09/12 06:46:32","429635.7913","14.1","213.53","45","60.07","20"
"07/09/12 06:51:30","429635.7925","12.8","213.46","38","60.03","20"
"07/09/12 06:56:32","429635.7938","12.0","214.1","7","60.03","21"
"07/09/12 07:01:30","429635.7949","32.8","214.54","290","60.03","22"
"07/09/12 07:06:32","429635.7963","27.7","215.07","22","60.0","22"
"07/09/12 07:11:30","429635.7984","25.4","214.19","62","60.03","22"
"07/09/12 07:16:31","429635.8008","29.8","214.86","273","60.0","23"
"07/09/12 07:21:31","429635.8038","36.2","214.24","151","60.0","23"
"07/09/12 07:26:31","429635.807","38.8","214.33","126","60.03","24"
"07/09/12 07:31:32","429635.8105","34.1","214.1","121","60.0","24"
"07/09/12 07:36:32","429635.8131","34.5","213.74","106","60.03","25"
"07/09/12 07:41:31","429635.8166","45.8","214.5","89","60.0","25"
"07/09/12 07:46:32","429635.8199","11.8","213.44","106","60.03","26"
"07/09/12 07:51:30","429635.8219","15.2","211.97","7","60.0","26"
"07/09/12 07:56:31","429635.8256","55.3","213.86","378","60.0","26"
"07/09/12 08:01:30","429635.8296","44.1","214.15","192","60.03","27"
"07/09/12 08:06:30","429635.8341","67.3","214.38","343","60.0","27"
"07/09/12 08:11:30","429635.8385","56.6","213.96","202","60.0","28"
"07/09/12 08:16:31","429635.8426","75.7","216.43","373","60.0","28"
"07/09/12 08:21:30","429635.8492","85.1","216.17","414","60.07","29"
"07/09/12 08:26:32","429635.8558","87.6","216.04","428","60.0","30"
"07/09/12 08:31:31","429635.8628","91.3","215.74","442","59.96","31"
"07/09/12 08:36:31","429635.8702","99.3","216.65","480","60.03","32"
"07/09/12 08:41:31","429635.8784","111.7","214.93","535","60.0","32"
"07/09/12 08:46:30","429635.8842","50.0","213.72","132","60.0","32"
"07/09/12 08:51:32","429635.8893","122.8","215.38","577","60.0","33"
"07/09/12 08:56:31","429635.8978","118.4","215.47","561","60.07","33"
"07/09/12 09:01:31","429635.9068","41.3","215.14","271","60.0","34"
"07/09/12 09:06:30","429635.9157","119.6","217.4","562","60.03","35"
"07/09/12 09:11:32","429635.9251","120.6","215.89","568","60.03","36"
"07/09/12 09:16:31","429635.9344","122.0","216.3","574","60.0","36"
"07/09/12 09:21:31","429635.9439","123.1","216.44","577","60.0","37"
"07/09/12 09:26:30","429635.9535","125.4","216.04","589","60.0","37"
"07/09/12 09:31:31","429635.9634","125.7","215.87","594","60.03","38"
"07/09/12 09:36:30","429635.9732","128.7","217.49","599","60.0","39"
"07/09/12 09:41:31","429635.9833","130.8","216.41","612","60.0","39"
"07/09/12 09:46:31","429635.9936","133.9","217.58","622","60.03","40"
"07/09/12 09:51:30","429636.0042","137.0","217.02","636","60.03","40"
"07/09/12 09:56:30","429636.0149","139.9","217.22","651","60.03","41"
"07/09/12 10:01:30","429636.0259","143.4","216.34","670","60.03","41"
"07/09/12 10:06:31","429636.0371","145.1","216.17","674","60.03","41"
"07/09/12 10:11:30","429636.0485","149.0","218.11","682","60.03","42"
"07/09/12 10:16:30","429636.0605","172.0","217.78","783","60.03","42"
"07/09/12 10:21:32","429636.0688","43.4","214.22","309","60.03","41"
"07/09/12 10:26:31","429636.0723","34.0","215.24","155","60.0","38"
"07/09/12 10:31:32","429636.0741","19.9","214.23","43","60.03","36"
"07/09/12 10:36:31","429636.0758","29.8","214.55","221","60.0","34"
"07/09/12 10:41:30","429636.0784","48.7","214.62","88","60.0","32"
"07/09/12 10:46:31","429636.0884","135.9","215.0","638","60.0","32"
"07/09/12 10:51:31","429636.1007","170.6","215.07","789","60.0","33"
"07/09/12 10:56:31","429636.11","147.8","218.36","680","60.03","33"
"07/09/12 11:01:30","429636.1188","73.1","215.66","363","60.03","32"
"07/09/12 11:06:30","429636.1279","81.3","214.85","403","60.0","32"
"07/09/12 11:11:31","429636.1345","45.5","213.92","361","60.03","31"
"07/09/12 11:16:32","429636.1374","30.1","214.66","76","60.0","30"
"07/09/12 11:21:30","429636.1411","100.8","215.75","485","60.03","29"
"07/09/12 11:26:30","429636.1531","194.2","217.16","881","60.03","30"
"07/09/12 11:31:31","429636.1675","194.6","218.65","872","60.0","31"
"07/09/12 11:36:32","429636.1826","193.4","216.65","883","60.03","33"
"07/09/12 11:41:30","429636.1918","61.4","213.59","315","60.03","32"
"07/09/12 11:46:31","429636.1968","126.1","213.81","598","60.0","32"
"07/09/12 11:51:31","429636.2039","93.2","213.91","454","60.03","31"
"07/09/12 11:56:31","429636.2155","102.4","215.63","489","60.03","32"
"07/09/12 12:01:32","429636.2227","96.5","214.45","468","60.03","32"
"07/09/12 12:06:30","429636.2319","194.3","217.26","881","60.03","32"
"07/09/12 12:11:30","429636.2462","158.9","215.79","736","60.03","34"
"07/09/12 12:16:31","429636.2609","193.6","216.66","880","60.03","35"
"07/09/12 12:21:30","429636.2756","194.4","215.53","889","60.0","37"
"07/09/12 12:26:30","429636.2894","193.5","215.58","882","60.03","38"
"07/09/12 12:31:30","429636.3041","189.3","216.57","861","60.0","39"
"07/09/12 12:36:31","429636.319","193.6","216.5","885","60.0","39"
"07/09/12 12:41:30","429636.3259","47.5","213.43","293","60.03","38"
"07/09/12 12:46:31","429636.3293","48.5","214.12","294","60.0","37"
"07/09/12 12:51:30","429636.3355","86.5","214.99","422","60.03","37"
"07/09/12 12:56:31","429636.348","192.5","217.42","884","60.07","37"
"07/09/12 13:01:32","429636.3612","80.7","215.05","399","60.03","38"
"07/09/12 13:06:30","429636.3716","64.9","213.97","334","60.03","38"